Year,Month,Day,Hour,Minute,Value (Times are PST for temperature in C)
2009,04,26,00,00,7.60
2009,04,26,00,01,7.60
2009,04,26,00,02,7.60
2009,04,26,00,03,7.60
2009,04,26,00,04,7.50
2009,04,26,00,05,7.50
2009,04,26,00,06,7.50
2009,04,26,00,07,7.40
2009,04,26,00,08,7.40
2009,04,26,00,09,7.40
2009,04,26,00,10,7.40
2009,04,26,00,11,7.40
2009,04,26,00,12,7.40
2009,04,26,00,13,7.40
2009,04,26,00,14,7.30
2009,04,26,00,15,7.40
2009,04,26,00,16,7.40
2009,04,26,00,17,7.40
2009,04,26,00,18,7.40
2009,04,26,00,19,7.30
2009,04,26,00,20,7.30
2009,04,26,00,21,7.30
2009,04,26,00,22,7.30
2009,04,26,00,23,7.30
2009,04,26,00,24,7.30
2009,04,26,00,25,7.30
2009,04,26,00,26,7.30
2009,04,26,00,27,7.30
2009,04,26,00,28,7.30
2009,04,26,00,29,7.20
2009,04,26,00,30,7.20
2009,04,26,00,31,7.20
2009,04,26,00,32,7.20
2009,04,26,00,33,7.20
2009,04,26,00,34,7.20
2009,04,26,00,35,7.20
2009,04,26,00,36,7.20
2009,04,26,00,37,7.20
2009,04,26,00,38,7.20
2009,04,26,00,39,7.20
2009,04,26,00,40,7.20
2009,04,26,00,41,7.20
2009,04,26,00,42,7.20
2009,04,26,00,43,7.20
2009,04,26,00,44,7.20
2009,04,26,00,45,7.20
2009,04,26,00,46,7.20
2009,04,26,00,47,7.20
2009,04,26,00,48,7.10
2009,04,26,00,49,7.10
2009,04,26,00,50,7.10
2009,04,26,00,51,7.10
2009,04,26,00,52,7.10
2009,04,26,00,53,7.10
2009,04,26,00,54,7.10
2009,04,26,00,55,7.00
2009,04,26,00,56,7.00
2009,04,26,00,57,7.00
2009,04,26,00,58,7.00
2009,04,26,00,59,6.90
2009,04,26,01,00,6.90
2009,04,26,01,01,6.90
2009,04,26,01,02,6.90
2009,04,26,01,03,6.90
2009,04,26,01,04,6.90
2009,04,26,01,05,6.90
2009,04,26,01,06,6.90
2009,04,26,01,07,6.80
2009,04,26,01,08,6.80
2009,04,26,01,09,6.80
2009,04,26,01,10,6.80
2009,04,26,01,11,6.80
2009,04,26,01,12,6.80
2009,04,26,01,13,6.80
2009,04,26,01,14,6.80
2009,04,26,01,15,6.80
2009,04,26,01,16,6.80
2009,04,26,01,17,6.80
2009,04,26,01,18,6.80
2009,04,26,01,19,6.70
2009,04,26,01,20,6.70
2009,04,26,01,21,6.70
2009,04,26,01,22,6.70
2009,04,26,01,23,6.70
2009,04,26,01,24,6.70
2009,04,26,01,25,6.70
2009,04,26,01,26,6.70
2009,04,26,01,27,6.70
2009,04,26,01,28,6.60
2009,04,26,01,29,6.60
2009,04,26,01,30,6.60
2009,04,26,01,31,6.60
2009,04,26,01,32,6.60
2009,04,26,01,33,6.60
2009,04,26,01,34,6.60
2009,04,26,01,35,6.60
2009,04,26,01,36,6.60
2009,04,26,01,37,6.50
2009,04,26,01,38,6.50
2009,04,26,01,39,6.50
2009,04,26,01,40,6.50
2009,04,26,01,41,6.40
2009,04,26,01,42,6.40
2009,04,26,01,43,6.40
2009,04,26,01,44,6.40
2009,04,26,01,45,6.40
2009,04,26,01,46,6.40
2009,04,26,01,47,6.30
2009,04,26,01,48,6.30
2009,04,26,01,49,6.30
2009,04,26,01,50,6.30
2009,04,26,01,51,6.30
2009,04,26,01,52,6.30
2009,04,26,01,53,6.30
2009,04,26,01,54,6.30
2009,04,26,01,55,6.30
2009,04,26,01,56,6.20
2009,04,26,01,57,6.20
2009,04,26,01,58,6.20
2009,04,26,01,59,6.20
2009,04,26,02,00,6.20
2009,04,26,02,01,6.10
2009,04,26,02,02,6.10
2009,04,26,02,03,6.10
2009,04,26,02,04,6.10
2009,04,26,02,05,6.10
2009,04,26,02,06,6.00
2009,04,26,02,07,6.00
2009,04,26,02,08,6.00
2009,04,26,02,09,6.00
2009,04,26,02,10,5.90
2009,04,26,02,11,5.90
2009,04,26,02,12,5.90
2009,04,26,02,13,5.90
2009,04,26,02,14,5.90
2009,04,26,02,15,5.90
2009,04,26,02,16,5.90
2009,04,26,02,17,5.80
2009,04,26,02,18,5.80
2009,04,26,02,19,5.80
2009,04,26,02,20,5.80
2009,04,26,02,21,5.80
2009,04,26,02,22,5.80
2009,04,26,02,23,5.80
2009,04,26,02,24,5.80
2009,04,26,02,25,5.80
2009,04,26,02,26,5.80
2009,04,26,02,27,5.70
2009,04,26,02,28,5.70
2009,04,26,02,29,5.70
2009,04,26,02,30,5.70
2009,04,26,02,31,5.80
2009,04,26,02,32,5.80
2009,04,26,02,33,5.80
2009,04,26,02,34,5.80
2009,04,26,02,35,5.80
2009,04,26,02,36,5.80
2009,04,26,02,37,5.90
2009,04,26,02,38,5.90
2009,04,26,02,39,5.90
2009,04,26,02,40,5.80
2009,04,26,02,41,5.80
2009,04,26,02,42,5.80
2009,04,26,02,43,5.80
2009,04,26,02,44,5.80
2009,04,26,02,45,5.80
2009,04,26,02,46,5.80
2009,04,26,02,47,5.80
2009,04,26,02,48,5.80
2009,04,26,02,49,5.80
2009,04,26,02,50,5.70
2009,04,26,02,51,5.70
2009,04,26,02,52,5.70
2009,04,26,02,53,5.70
2009,04,26,02,54,5.60
2009,04,26,02,55,5.60
2009,04,26,02,56,5.60
2009,04,26,02,57,5.50
2009,04,26,02,58,5.50
2009,04,26,02,59,5.50
2009,04,26,03,00,5.40
2009,04,26,03,01,5.40
2009,04,26,03,02,5.40
2009,04,26,03,03,5.30
2009,04,26,03,04,5.30
2009,04,26,03,05,5.30
2009,04,26,03,06,5.20
2009,04,26,03,07,5.20
2009,04,26,03,08,5.20
2009,04,26,03,09,5.10
2009,04,26,03,10,5.10
2009,04,26,03,11,5.10
2009,04,26,03,12,5.10
2009,04,26,03,13,5.10
2009,04,26,03,14,5.00
2009,04,26,03,15,5.00
2009,04,26,03,16,5.00
2009,04,26,03,17,5.00
2009,04,26,03,18,5.00
2009,04,26,03,19,5.00
2009,04,26,03,20,5.00
2009,04,26,03,21,5.00
2009,04,26,03,22,5.00
2009,04,26,03,23,5.00
2009,04,26,03,24,5.00
2009,04,26,03,25,5.10
2009,04,26,03,26,5.10
2009,04,26,03,27,5.10
2009,04,26,03,28,5.10
2009,04,26,03,29,5.10
2009,04,26,03,30,5.10
2009,04,26,03,31,5.00
2009,04,26,03,32,5.00
2009,04,26,03,33,5.00
2009,04,26,03,34,5.00
2009,04,26,03,35,5.00
2009,04,26,03,36,5.00
2009,04,26,03,37,4.90
2009,04,26,03,38,4.90
2009,04,26,03,39,4.90
2009,04,26,03,40,4.90
2009,04,26,03,41,4.90
2009,04,26,03,42,4.80
2009,04,26,03,43,4.80
2009,04,26,03,44,4.80
2009,04,26,03,45,4.80
2009,04,26,03,46,4.80
2009,04,26,03,47,4.70
2009,04,26,03,48,4.70
2009,04,26,03,49,4.70
2009,04,26,03,50,4.70
2009,04,26,03,51,4.70
2009,04,26,03,52,4.60
2009,04,26,03,53,4.60
2009,04,26,03,54,4.60
2009,04,26,03,55,4.60
2009,04,26,03,56,4.60
2009,04,26,03,57,4.60
2009,04,26,03,58,4.60
2009,04,26,03,59,4.60
2009,04,26,04,00,4.60
2009,04,26,04,01,4.60
2009,04,26,04,02,4.60
2009,04,26,04,03,4.60
2009,04,26,04,04,4.60
2009,04,26,04,05,4.70
2009,04,26,04,06,4.70
2009,04,26,04,07,4.70
2009,04,26,04,08,4.70
2009,04,26,04,09,4.70
2009,04,26,04,10,4.70
2009,04,26,04,11,4.70
2009,04,26,04,12,4.80
2009,04,26,04,13,4.80
2009,04,26,04,14,4.80
2009,04,26,04,15,4.90
2009,04,26,04,16,4.90
2009,04,26,04,17,4.90
2009,04,26,04,18,4.90
2009,04,26,04,19,4.90
2009,04,26,04,20,4.90
2009,04,26,04,21,4.90
2009,04,26,04,22,4.90
2009,04,26,04,23,4.90
2009,04,26,04,24,5.00
2009,04,26,04,25,5.00
2009,04,26,04,26,5.00
2009,04,26,04,27,4.90
2009,04,26,04,28,4.90
2009,04,26,04,29,4.90
2009,04,26,04,30,4.90
2009,04,26,04,31,4.90
2009,04,26,04,32,4.90
2009,04,26,04,33,4.90
2009,04,26,04,34,4.90
2009,04,26,04,35,4.90
2009,04,26,04,36,5.00
2009,04,26,04,37,5.00
2009,04,26,04,38,5.00
2009,04,26,04,39,5.00
2009,04,26,04,40,5.10
2009,04,26,04,41,5.10
2009,04,26,04,42,5.10
2009,04,26,04,43,5.10
2009,04,26,04,44,5.10
2009,04,26,04,45,5.10
2009,04,26,04,46,5.10
2009,04,26,04,47,5.10
2009,04,26,04,48,5.00
2009,04,26,04,49,5.00
2009,04,26,04,50,5.00
2009,04,26,04,51,5.00
2009,04,26,04,52,5.00
2009,04,26,04,53,4.90
2009,04,26,04,54,4.90
2009,04,26,04,55,4.90
2009,04,26,04,56,5.00
2009,04,26,04,57,5.00
2009,04,26,04,58,5.00
2009,04,26,04,59,5.00
2009,04,26,05,00,5.00
2009,04,26,05,01,5.00
2009,04,26,05,02,4.90
2009,04,26,05,03,4.90
2009,04,26,05,04,4.90
2009,04,26,05,05,4.90
2009,04,26,05,06,4.90
2009,04,26,05,07,4.90
2009,04,26,05,08,4.90
2009,04,26,05,09,4.80
2009,04,26,05,10,4.80
2009,04,26,05,11,4.80
2009,04,26,05,12,4.80
2009,04,26,05,13,4.80
2009,04,26,05,14,4.80
2009,04,26,05,15,4.80
2009,04,26,05,16,4.80
2009,04,26,05,17,4.70
2009,04,26,05,18,4.70
2009,04,26,05,19,4.70
2009,04,26,05,20,4.80
2009,04,26,05,21,4.80
2009,04,26,05,22,4.80
2009,04,26,05,23,4.80
2009,04,26,05,24,4.80
2009,04,26,05,25,4.70
2009,04,26,05,26,4.70
2009,04,26,05,27,4.70
2009,04,26,05,28,4.70
2009,04,26,05,29,4.60
2009,04,26,05,30,4.60
2009,04,26,05,31,4.60
2009,04,26,05,32,4.60
2009,04,26,05,33,4.60
2009,04,26,05,34,4.60
2009,04,26,05,35,4.60
2009,04,26,05,36,4.50
2009,04,26,05,37,4.50
2009,04,26,05,38,4.50
2009,04,26,05,39,4.50
2009,04,26,05,40,4.50
2009,04,26,05,41,4.50
2009,04,26,05,42,4.50
2009,04,26,05,43,4.50
2009,04,26,05,44,4.50
2009,04,26,05,45,4.40
2009,04,26,05,46,4.40
2009,04,26,05,47,4.40
2009,04,26,05,48,4.40
2009,04,26,05,49,4.40
2009,04,26,05,50,4.40
2009,04,26,05,51,4.40
2009,04,26,05,52,4.40
2009,04,26,05,53,4.40
2009,04,26,05,54,4.40
2009,04,26,05,55,4.40
2009,04,26,05,56,4.30
2009,04,26,05,57,4.30
2009,04,26,05,58,4.30
2009,04,26,05,59,4.30
2009,04,26,06,00,4.30
2009,04,26,06,01,4.30
2009,04,26,06,02,4.30
2009,04,26,06,03,4.30
2009,04,26,06,04,4.20
2009,04,26,06,05,4.30
2009,04,26,06,06,4.30
2009,04,26,06,07,4.30
2009,04,26,06,08,4.30
2009,04,26,06,09,4.30
2009,04,26,06,10,4.30
2009,04,26,06,11,4.30
2009,04,26,06,12,4.30
2009,04,26,06,13,4.30
2009,04,26,06,14,4.30
2009,04,26,06,15,4.30
2009,04,26,06,16,4.20
2009,04,26,06,17,4.20
2009,04,26,06,18,4.20
2009,04,26,06,19,4.20
2009,04,26,06,20,4.20
2009,04,26,06,21,4.20
2009,04,26,06,22,4.10
2009,04,26,06,23,4.10
2009,04,26,06,24,4.10
2009,04,26,06,25,4.10
2009,04,26,06,26,4.10
2009,04,26,06,27,4.10
2009,04,26,06,28,4.10
2009,04,26,06,29,4.00
2009,04,26,06,30,4.00
2009,04,26,06,31,4.00
2009,04,26,06,32,4.00
2009,04,26,06,33,4.00
2009,04,26,06,34,3.90
2009,04,26,06,35,3.90
2009,04,26,06,36,3.90
2009,04,26,06,37,3.90
2009,04,26,06,38,3.90
2009,04,26,06,39,3.90
2009,04,26,06,40,3.90
2009,04,26,06,41,4.00
2009,04,26,06,42,4.00
2009,04,26,06,43,4.10
2009,04,26,06,44,4.10
2009,04,26,06,45,4.10
2009,04,26,06,46,4.20
2009,04,26,06,47,4.20
2009,04,26,06,48,4.20
2009,04,26,06,49,4.20
2009,04,26,06,50,4.20
2009,04,26,06,51,4.30
2009,04,26,06,52,4.30
2009,04,26,06,53,4.30
2009,04,26,06,54,4.40
2009,04,26,06,55,4.40
2009,04,26,06,56,4.50
2009,04,26,06,57,4.50
2009,04,26,06,58,4.50
2009,04,26,06,59,4.60
2009,04,26,07,00,4.70
2009,04,26,07,01,4.70
2009,04,26,07,02,4.70
2009,04,26,07,03,4.80
2009,04,26,07,04,4.90
2009,04,26,07,05,4.90
2009,04,26,07,06,5.00
2009,04,26,07,07,5.10
2009,04,26,07,08,5.10
2009,04,26,07,09,5.20
2009,04,26,07,10,5.20
2009,04,26,07,11,5.30
2009,04,26,07,12,5.30
2009,04,26,07,13,5.40
2009,04,26,07,14,5.40
2009,04,26,07,15,5.50
2009,04,26,07,16,5.60
2009,04,26,07,17,5.60
2009,04,26,07,18,5.70
2009,04,26,07,19,5.70
2009,04,26,07,20,5.80
2009,04,26,07,21,5.80
2009,04,26,07,22,5.90
2009,04,26,07,23,5.90
2009,04,26,07,24,6.00
2009,04,26,07,25,6.00
2009,04,26,07,26,6.10
2009,04,26,07,27,6.10
2009,04,26,07,28,6.10
2009,04,26,07,29,6.20
2009,04,26,07,30,6.20
2009,04,26,07,31,6.20
2009,04,26,07,32,6.20
2009,04,26,07,33,6.30
2009,04,26,07,34,6.30
2009,04,26,07,35,6.30
2009,04,26,07,36,6.30
2009,04,26,07,37,6.30
2009,04,26,07,38,6.40
2009,04,26,07,39,6.40
2009,04,26,07,40,6.40
2009,04,26,07,41,6.40
2009,04,26,07,42,6.40
2009,04,26,07,43,6.40
2009,04,26,07,44,6.50
2009,04,26,07,45,6.50
2009,04,26,07,46,6.50
2009,04,26,07,47,6.50
2009,04,26,07,48,6.60
2009,04,26,07,49,6.60
2009,04,26,07,50,6.60
2009,04,26,07,51,6.60
2009,04,26,07,52,6.70
2009,04,26,07,53,6.70
2009,04,26,07,54,6.70
2009,04,26,07,55,6.70
2009,04,26,07,56,6.70
2009,04,26,07,57,6.80
2009,04,26,07,58,6.80
2009,04,26,07,59,6.80
2009,04,26,08,00,6.80
2009,04,26,08,01,6.80
2009,04,26,08,02,6.90
2009,04,26,08,03,6.90
2009,04,26,08,04,6.90
2009,04,26,08,05,6.90
2009,04,26,08,06,6.90
2009,04,26,08,07,6.90
2009,04,26,08,08,6.90
2009,04,26,08,09,6.90
2009,04,26,08,10,6.90
2009,04,26,08,11,6.90
2009,04,26,08,12,6.90
2009,04,26,08,13,6.90
2009,04,26,08,14,7.00
2009,04,26,08,15,7.00
2009,04,26,08,16,7.00
2009,04,26,08,17,6.90
2009,04,26,08,18,6.90
2009,04,26,08,19,6.90
2009,04,26,08,20,6.90
2009,04,26,08,21,6.90
2009,04,26,08,22,6.90
2009,04,26,08,23,7.00
2009,04,26,08,24,7.00
2009,04,26,08,25,7.00
2009,04,26,08,26,7.00
2009,04,26,08,27,7.10
2009,04,26,08,28,7.10
2009,04,26,08,29,7.10
2009,04,26,08,30,7.10
2009,04,26,08,31,7.10
2009,04,26,08,32,7.10
2009,04,26,08,33,7.20
2009,04,26,08,34,7.20
2009,04,26,08,35,7.20
2009,04,26,08,36,7.20
2009,04,26,08,37,7.30
2009,04,26,08,38,7.30
2009,04,26,08,39,7.30
2009,04,26,08,40,7.40
2009,04,26,08,41,7.40
2009,04,26,08,42,7.40
2009,04,26,08,43,7.40
2009,04,26,08,44,7.50
2009,04,26,08,45,7.50
2009,04,26,08,46,7.50
2009,04,26,08,47,7.40
2009,04,26,08,48,7.50
2009,04,26,08,49,7.50
2009,04,26,08,50,7.60
2009,04,26,08,51,7.70
2009,04,26,08,52,7.70
2009,04,26,08,53,7.80
2009,04,26,08,54,7.90
2009,04,26,08,55,7.90
2009,04,26,08,56,7.90
2009,04,26,08,57,7.90
2009,04,26,08,58,7.90
2009,04,26,08,59,7.90
2009,04,26,09,00,7.90
2009,04,26,09,01,7.90
2009,04,26,09,02,7.90
2009,04,26,09,03,8.00
2009,04,26,09,04,8.10
2009,04,26,09,05,8.10
2009,04,26,09,06,8.10
2009,04,26,09,07,8.20
2009,04,26,09,08,8.20
2009,04,26,09,09,8.30
2009,04,26,09,10,8.30
2009,04,26,09,11,8.40
2009,04,26,09,12,8.40
2009,04,26,09,13,8.40
2009,04,26,09,14,8.50
2009,04,26,09,15,8.50
2009,04,26,09,16,8.50
2009,04,26,09,17,8.60
2009,04,26,09,18,8.60
2009,04,26,09,19,8.60
2009,04,26,09,20,8.60
2009,04,26,09,21,8.70
2009,04,26,09,22,8.70
2009,04,26,09,23,8.70
2009,04,26,09,24,8.80
2009,04,26,09,25,8.80
2009,04,26,09,26,8.70
2009,04,26,09,27,8.70
2009,04,26,09,28,8.70
2009,04,26,09,29,8.80
2009,04,26,09,30,8.90
2009,04,26,09,31,8.90
2009,04,26,09,32,9.00
2009,04,26,09,33,9.00
2009,04,26,09,34,9.00
2009,04,26,09,35,9.00
2009,04,26,09,36,9.00
2009,04,26,09,37,8.90
2009,04,26,09,38,8.90
2009,04,26,09,39,8.80
2009,04,26,09,40,8.70
2009,04,26,09,41,8.70
2009,04,26,09,42,8.60
2009,04,26,09,43,8.60
2009,04,26,09,44,8.60
2009,04,26,09,45,8.60
2009,04,26,09,46,8.60
2009,04,26,09,47,8.50
2009,04,26,09,48,8.50
2009,04,26,09,49,8.50
2009,04,26,09,50,8.50
2009,04,26,09,51,8.50
2009,04,26,09,52,8.50
2009,04,26,09,53,8.40
2009,04,26,09,54,8.50
2009,04,26,09,55,8.60
2009,04,26,09,56,8.60
2009,04,26,09,57,8.60
2009,04,26,09,58,8.60
2009,04,26,09,59,8.60
2009,04,26,10,00,8.50
2009,04,26,10,01,8.50
2009,04,26,10,02,8.40
2009,04,26,10,03,8.50
2009,04,26,10,04,8.50
2009,04,26,10,05,8.60
2009,04,26,10,06,8.60
2009,04,26,10,07,8.70
2009,04,26,10,08,8.80
2009,04,26,10,09,8.90
2009,04,26,10,10,9.00
2009,04,26,10,11,9.10
2009,04,26,10,12,9.20
2009,04,26,10,13,9.40
2009,04,26,10,14,9.40
2009,04,26,10,15,9.50
2009,04,26,10,16,9.50
2009,04,26,10,17,9.50
2009,04,26,10,18,9.50
2009,04,26,10,19,9.40
2009,04,26,10,20,9.30
2009,04,26,10,21,9.20
2009,04,26,10,22,9.10
2009,04,26,10,23,9.10
2009,04,26,10,24,9.10
2009,04,26,10,25,9.10
2009,04,26,10,26,9.10
2009,04,26,10,27,9.20
2009,04,26,10,28,9.20
2009,04,26,10,29,9.30
2009,04,26,10,30,9.30
2009,04,26,10,31,9.30
2009,04,26,10,32,9.30
2009,04,26,10,33,9.30
2009,04,26,10,34,9.20
2009,04,26,10,35,9.10
2009,04,26,10,36,9.10
2009,04,26,10,37,9.10
2009,04,26,10,38,9.30
2009,04,26,10,39,9.40
2009,04,26,10,40,9.40
2009,04,26,10,41,9.50
2009,04,26,10,42,9.60
2009,04,26,10,43,9.60
2009,04,26,10,44,9.60
2009,04,26,10,45,9.60
2009,04,26,10,46,9.60
2009,04,26,10,47,9.60
2009,04,26,10,48,9.60
2009,04,26,10,49,9.70
2009,04,26,10,50,9.70
2009,04,26,10,51,9.60
2009,04,26,10,52,9.60
2009,04,26,10,53,9.60
2009,04,26,10,54,9.60
2009,04,26,10,55,9.60
2009,04,26,10,56,9.60
2009,04,26,10,57,9.70
2009,04,26,10,58,9.70
2009,04,26,10,59,9.70
2009,04,26,11,00,9.80
2009,04,26,11,01,9.80
2009,04,26,11,02,9.70
2009,04,26,11,03,9.70
2009,04,26,11,04,9.80
2009,04,26,11,05,9.80
2009,04,26,11,06,9.80
2009,04,26,11,07,9.80
2009,04,26,11,08,9.70
2009,04,26,11,09,9.80
2009,04,26,11,10,9.80
2009,04,26,11,11,9.80
2009,04,26,11,12,9.70
2009,04,26,11,13,9.70
2009,04,26,11,14,9.80
2009,04,26,11,15,9.80
2009,04,26,11,16,9.90
2009,04,26,11,17,10.10
2009,04,26,11,18,10.00
2009,04,26,11,19,10.00
2009,04,26,11,20,9.90
2009,04,26,11,21,9.80
2009,04,26,11,22,9.80
2009,04,26,11,23,9.80
2009,04,26,11,24,9.70
2009,04,26,11,25,9.70
2009,04,26,11,26,9.60
2009,04,26,11,27,9.50
2009,04,26,11,28,9.50
2009,04,26,11,29,9.60
2009,04,26,11,30,9.60
2009,04,26,11,31,9.70
2009,04,26,11,32,9.70
2009,04,26,11,33,9.80
2009,04,26,11,34,9.90
2009,04,26,11,35,9.90
2009,04,26,11,36,9.90
2009,04,26,11,37,10.00
2009,04,26,11,38,10.00
2009,04,26,11,39,9.90
2009,04,26,11,40,9.90
2009,04,26,11,41,9.90
2009,04,26,11,42,9.90
2009,04,26,11,43,9.90
2009,04,26,11,44,9.90
2009,04,26,11,45,9.80
2009,04,26,11,46,9.80
2009,04,26,11,47,9.90
2009,04,26,11,48,10.00
2009,04,26,11,49,10.10
2009,04,26,11,50,10.20
2009,04,26,11,51,10.30
2009,04,26,11,52,10.40
2009,04,26,11,53,10.50
2009,04,26,11,54,10.60
2009,04,26,11,55,10.80
2009,04,26,11,56,10.90
2009,04,26,11,57,10.90
2009,04,26,11,58,11.00
2009,04,26,11,59,10.90
2009,04,26,12,00,11.00
2009,04,26,12,01,11.00
2009,04,26,12,02,10.80
2009,04,26,12,03,10.70
2009,04,26,12,04,10.60
2009,04,26,12,05,10.60
2009,04,26,12,06,10.50
2009,04,26,12,07,10.50
2009,04,26,12,08,10.40
2009,04,26,12,09,10.40
2009,04,26,12,10,10.40
2009,04,26,12,11,10.40
2009,04,26,12,12,10.40
2009,04,26,12,13,10.30
2009,04,26,12,14,10.40
2009,04,26,12,15,10.60
2009,04,26,12,16,10.60
2009,04,26,12,17,10.70
2009,04,26,12,18,10.70
2009,04,26,12,19,10.60
2009,04,26,12,20,10.60
2009,04,26,12,21,10.60
2009,04,26,12,22,10.60
2009,04,26,12,23,10.60
2009,04,26,12,24,10.60
2009,04,26,12,25,10.50
2009,04,26,12,26,10.40
2009,04,26,12,27,10.30
2009,04,26,12,28,10.20
2009,04,26,12,29,10.20
2009,04,26,12,30,10.10
2009,04,26,12,31,10.20
2009,04,26,12,32,10.20
2009,04,26,12,33,10.20
2009,04,26,12,34,10.20
2009,04,26,12,35,10.30
2009,04,26,12,36,10.30
2009,04,26,12,37,10.30
2009,04,26,12,38,10.20
2009,04,26,12,39,10.30
2009,04,26,12,40,10.40
2009,04,26,12,41,10.50
2009,04,26,12,42,10.60
2009,04,26,12,43,10.70
2009,04,26,12,44,10.70
2009,04,26,12,45,10.80
2009,04,26,12,46,10.90
2009,04,26,12,47,10.90
2009,04,26,12,48,10.90
2009,04,26,12,49,10.90
2009,04,26,12,50,10.90
2009,04,26,12,51,10.80
2009,04,26,12,52,10.80
2009,04,26,12,53,10.70
2009,04,26,12,54,10.50
2009,04,26,12,55,10.50
2009,04,26,12,56,10.50
2009,04,26,12,57,10.40
2009,04,26,12,58,10.40
2009,04,26,12,59,10.40
2009,04,26,13,00,10.40
2009,04,26,13,01,10.30
2009,04,26,13,02,10.20
2009,04,26,13,03,10.20
2009,04,26,13,04,10.20
2009,04,26,13,05,10.30
2009,04,26,13,06,10.30
2009,04,26,13,07,10.40
2009,04,26,13,08,10.50
2009,04,26,13,09,10.50
2009,04,26,13,10,10.60
2009,04,26,13,11,10.70
2009,04,26,13,12,10.80
2009,04,26,13,13,10.90
2009,04,26,13,14,10.90
2009,04,26,13,15,11.00
2009,04,26,13,16,11.00
2009,04,26,13,17,11.10
2009,04,26,13,18,11.30
2009,04,26,13,19,11.40
2009,04,26,13,20,11.50
2009,04,26,13,21,11.40
2009,04,26,13,22,11.40
2009,04,26,13,23,11.30
2009,04,26,13,24,11.40
2009,04,26,13,25,11.40
2009,04,26,13,26,11.50
2009,04,26,13,27,11.50
2009,04,26,13,28,11.50
2009,04,26,13,29,11.50
2009,04,26,13,30,11.40
2009,04,26,13,31,11.30
2009,04,26,13,32,11.20
2009,04,26,13,33,11.10
2009,04,26,13,34,11.20
2009,04,26,13,35,11.30
2009,04,26,13,36,11.30
2009,04,26,13,37,11.30
2009,04,26,13,38,11.30
2009,04,26,13,39,11.20
2009,04,26,13,40,11.20
2009,04,26,13,41,11.10
2009,04,26,13,42,11.20
2009,04,26,13,43,11.20
2009,04,26,13,44,11.30
2009,04,26,13,45,11.30
2009,04,26,13,46,11.30
2009,04,26,13,47,11.50
2009,04,26,13,48,11.60
2009,04,26,13,49,11.70
2009,04,26,13,50,11.70
2009,04,26,13,51,11.60
2009,04,26,13,52,11.50
2009,04,26,13,53,11.30
2009,04,26,13,54,11.30
2009,04,26,13,55,11.30
2009,04,26,13,56,11.30
2009,04,26,13,57,11.30
2009,04,26,13,58,11.30
2009,04,26,13,59,11.30
2009,04,26,14,00,11.30
2009,04,26,14,01,11.50
2009,04,26,14,02,11.60
2009,04,26,14,03,11.70
2009,04,26,14,04,11.80
2009,04,26,14,05,11.80
2009,04,26,14,06,11.90
2009,04,26,14,07,11.90
2009,04,26,14,08,11.90
2009,04,26,14,09,11.90
2009,04,26,14,10,11.80
2009,04,26,14,11,11.80
2009,04,26,14,12,11.70
2009,04,26,14,13,11.70
2009,04,26,14,14,11.70
2009,04,26,14,15,11.80
2009,04,26,14,16,11.80
2009,04,26,14,17,11.90
2009,04,26,14,18,12.10
2009,04,26,14,19,12.20
2009,04,26,14,20,12.20
2009,04,26,14,21,12.10
2009,04,26,14,22,12.00
2009,04,26,14,23,12.00
2009,04,26,14,24,12.00
2009,04,26,14,25,12.10
2009,04,26,14,26,12.20
2009,04,26,14,27,12.20
2009,04,26,14,28,12.20
2009,04,26,14,29,12.20
2009,04,26,14,30,12.30
2009,04,26,14,31,12.20
2009,04,26,14,32,12.20
2009,04,26,14,33,12.10
2009,04,26,14,34,12.10
2009,04,26,14,35,12.20
2009,04,26,14,36,12.20
2009,04,26,14,37,12.10
2009,04,26,14,38,12.10
2009,04,26,14,39,12.00
2009,04,26,14,40,12.00
2009,04,26,14,41,11.90
2009,04,26,14,42,12.00
2009,04,26,14,43,12.00
2009,04,26,14,44,12.10
2009,04,26,14,45,12.00
2009,04,26,14,46,12.00
2009,04,26,14,47,11.90
2009,04,26,14,48,12.00
2009,04,26,14,49,12.10
2009,04,26,14,50,12.20
2009,04,26,14,51,12.20
2009,04,26,14,52,12.20
2009,04,26,14,53,12.20
2009,04,26,14,54,12.20
2009,04,26,14,55,12.10
2009,04,26,14,56,12.00
2009,04,26,14,57,12.10
2009,04,26,14,58,12.10
2009,04,26,14,59,12.00
2009,04,26,15,00,12.00
2009,04,26,15,01,11.90
2009,04,26,15,02,11.90
2009,04,26,15,03,11.90
2009,04,26,15,04,11.90
2009,04,26,15,05,12.00
2009,04,26,15,06,12.00
2009,04,26,15,07,12.10
2009,04,26,15,08,12.20
2009,04,26,15,09,12.30
2009,04,26,15,10,12.40
2009,04,26,15,11,12.40
2009,04,26,15,12,12.50
2009,04,26,15,13,12.50
2009,04,26,15,14,12.50
2009,04,26,15,15,12.60
2009,04,26,15,16,12.70
2009,04,26,15,17,12.90
2009,04,26,15,18,13.10
2009,04,26,15,19,13.20
2009,04,26,15,20,13.20
2009,04,26,15,21,13.30
2009,04,26,15,22,13.30
2009,04,26,15,23,13.30
2009,04,26,15,24,13.30
2009,04,26,15,25,13.30
2009,04,26,15,26,13.20
2009,04,26,15,27,13.20
2009,04,26,15,28,13.20
2009,04,26,15,29,13.20
2009,04,26,15,30,13.20
2009,04,26,15,31,13.20
2009,04,26,15,32,13.30
2009,04,26,15,33,13.40
2009,04,26,15,34,13.40
2009,04,26,15,35,13.40
2009,04,26,15,36,13.30
2009,04,26,15,37,13.30
2009,04,26,15,38,13.40
2009,04,26,15,39,13.40
2009,04,26,15,40,13.40
2009,04,26,15,41,13.40
2009,04,26,15,42,13.50
2009,04,26,15,43,13.50
2009,04,26,15,44,13.50
2009,04,26,15,45,13.60
2009,04,26,15,46,13.70
2009,04,26,15,47,13.80
2009,04,26,15,48,13.90
2009,04,26,15,49,14.00
2009,04,26,15,50,14.10
2009,04,26,15,51,14.20
2009,04,26,15,52,14.30
2009,04,26,15,53,14.40
2009,04,26,15,54,14.40
2009,04,26,15,55,14.40
2009,04,26,15,56,14.40
2009,04,26,15,57,14.30
2009,04,26,15,58,14.20
2009,04,26,15,59,14.20
2009,04,26,16,00,14.20
2009,04,26,16,01,14.20
2009,04,26,16,02,14.20
2009,04,26,16,03,14.20
2009,04,26,16,04,14.20
2009,04,26,16,05,14.20
2009,04,26,16,06,14.20
2009,04,26,16,07,14.20
2009,04,26,16,08,14.20
2009,04,26,16,09,14.30
2009,04,26,16,10,14.30
2009,04,26,16,11,14.30
2009,04,26,16,12,14.30
2009,04,26,16,13,14.30
2009,04,26,16,14,14.30
2009,04,26,16,15,14.30
2009,04,26,16,16,14.30
2009,04,26,16,17,14.30
2009,04,26,16,18,14.30
2009,04,26,16,19,14.30
2009,04,26,16,20,14.20
2009,04,26,16,21,14.10
2009,04,26,16,22,14.10
2009,04,26,16,23,14.00
2009,04,26,16,24,14.00
2009,04,26,16,25,13.90
2009,04,26,16,26,13.90
2009,04,26,16,27,14.00
2009,04,26,16,28,14.00
2009,04,26,16,29,14.00
2009,04,26,16,30,14.10
2009,04,26,16,31,14.10
2009,04,26,16,32,14.10
2009,04,26,16,33,14.10
2009,04,26,16,34,14.10
2009,04,26,16,35,14.00
2009,04,26,16,36,13.90
2009,04,26,16,37,13.90
2009,04,26,16,38,13.90
2009,04,26,16,39,13.90
2009,04,26,16,40,13.90
2009,04,26,16,41,13.90
2009,04,26,16,42,13.90
2009,04,26,16,43,13.90
2009,04,26,16,44,14.00
2009,04,26,16,45,14.10
2009,04,26,16,46,14.20
2009,04,26,16,47,14.30
2009,04,26,16,48,14.30
2009,04,26,16,49,14.40
2009,04,26,16,50,14.40
2009,04,26,16,51,14.50
2009,04,26,16,52,14.40
2009,04,26,16,53,14.30
2009,04,26,16,54,14.40
2009,04,26,16,55,14.40
2009,04,26,16,56,14.40
2009,04,26,16,57,14.40
2009,04,26,16,58,14.30
2009,04,26,16,59,14.40
2009,04,26,17,00,14.40
2009,04,26,17,01,14.40
2009,04,26,17,02,14.30
2009,04,26,17,03,14.20
2009,04,26,17,04,14.20
2009,04,26,17,05,14.20
2009,04,26,17,06,14.10
2009,04,26,17,07,14.10
2009,04,26,17,08,14.10
2009,04,26,17,09,14.00
2009,04,26,17,10,13.90
2009,04,26,17,11,13.80
2009,04,26,17,12,13.70
2009,04,26,17,13,13.60
2009,04,26,17,14,13.40
2009,04,26,17,15,13.40
2009,04,26,17,16,13.40
2009,04,26,17,17,13.40
2009,04,26,17,18,13.40
2009,04,26,17,19,13.30
2009,04,26,17,20,13.10
2009,04,26,17,21,13.00
2009,04,26,17,22,12.90
2009,04,26,17,23,12.90
2009,04,26,17,24,12.90
2009,04,26,17,25,13.00
2009,04,26,17,26,13.10
2009,04,26,17,27,13.10
2009,04,26,17,28,13.10
2009,04,26,17,29,13.20
2009,04,26,17,30,13.30
2009,04,26,17,31,13.40
2009,04,26,17,32,13.50
2009,04,26,17,33,13.50
2009,04,26,17,34,13.60
2009,04,26,17,35,13.70
2009,04,26,17,36,13.70
2009,04,26,17,37,13.70
2009,04,26,17,38,13.80
2009,04,26,17,39,13.90
2009,04,26,17,40,13.90
2009,04,26,17,41,14.00
2009,04,26,17,42,14.10
2009,04,26,17,43,14.10
2009,04,26,17,44,14.20
2009,04,26,17,45,14.30
2009,04,26,17,46,14.40
2009,04,26,17,47,14.50
2009,04,26,17,48,14.50
2009,04,26,17,49,14.60
2009,04,26,17,50,14.50